Weather History for PAEN - December, 2011

Change the Weather History Date:

Thursday, December 29, 2011

  Actual Average Record
Temperature  
Mean Temperature -4 °F -  
Max Temperature 7 °F 23 °F 46 °F (1982)
Min Temperature -14 °F 8 °F -39 °F (1961)
Degree Days  
Heating Degree Days 68    
Moisture  
Dew Point -3 °F    
Average Humidity 83    
Maximum Humidity 92    
Minimum Humidity 77    
Precipitation  
Precipitation 0.00 in - - ()
Sea Level Pressure  
Sea Level Pressure 29.34 in    
Wind  
Wind Speed 4 mph (NE)    
Max Wind Speed 17 mph    
Max Gust Speed -    
Visibility 9 miles    
Events Snow    
Averages and records for this station are not official NWS values.
T = Trace of Precipitation, MM = Missing Value Source: NWS Daily Summary

Daily Weather History Graph

Daily Weather History Graph

Search for Another Location

Airport or City:

Trip Planner

Search our weather history database for the weather conditions in past years. The results will help you decide how hot, cold, wet, or windy it might be!

Date:

Astronomy

Dec. 29, 2011 Rise Set
Actual Time 10:13 AM AKST 4:00 PM AKST
Civil Twilight 9:14 AM AKST 4:59 PM AKST
Nautical Twilight 8:16 AM AKST 5:57 PM AKST
Astronomical Twilight 7:24 AM AKST 6:49 PM AKST
Moon 11:34 AM AKST (12/29) 11:33 PM AKST (12/29)
Length of Visible Light 7h 44m
Length of Day
5h 46m
Waxing Crescent, 28% of the Moon is Illuminated
Dec 29
Waxing Crescent
Dec 31
First Quarter
Jan 8
Full
Jan 16
Last Quarter
Jan 22
New

Hourly Weather History & Observations

Time (AKST) Temp. Windchill Dew Point Humidity Pressure Visibility Wind Dir Wind Speed Gust Speed Precip Events Conditions
12:53 AM -13.0 °F - -18.0 °F 78% 29.19 in 10.0 mi Calm Calm - N/A   Clear
1:53 AM -14.1 °F - -18.9 °F 79% 29.21 in 10.0 mi Calm Calm - N/A   Clear
2:23 AM -14.8 °F - -18.4 °F 84% 29.20 in 10.0 mi Calm Calm - N/A   Mostly Cloudy
3:53 AM -6.0 °F - -8.0 °F 91% 29.25 in 10.0 mi Calm Calm - N/A   Overcast
4:53 AM -5.1 °F - -8.0 °F 87% 29.26 in 10.0 mi Calm Calm - N/A   Overcast
5:12 AM -5.8 °F - -9.4 °F 84% 29.25 in 10.0 mi Calm Calm - N/A   Scattered Clouds
5:53 AM -9.0 °F -18.2 °F -13.0 °F 83% 29.28 in 10.0 mi NE 3.5 mph - N/A   Clear
6:53 AM -9.9 °F - -14.1 °F 82% 29.30 in 10.0 mi Calm Calm - N/A   Partly Cloudy
7:53 AM -11.9 °F - -16.1 °F 82% 29.32 in 10.0 mi Calm Calm - N/A   Mostly Cloudy
8:53 AM -2.0 °F -10.1 °F -5.1 °F 87% 29.34 in 10.0 mi NNE 3.5 mph - N/A   Overcast
9:32 AM 1.4 °F -14.5 °F -2.2 °F 85% 29.34 in 10.0 mi NE 10.4 mph - N/A   Scattered Clouds
9:46 AM 1.4 °F -12.5 °F -2.2 °F 85% 29.34 in 10.0 mi NE 8.1 mph - N/A   Mostly Cloudy
9:53 AM 1.0 °F -12.9 °F -2.0 °F 87% 29.36 in 10.0 mi NE 8.1 mph - N/A   Mostly Cloudy
10:50 AM -0.4 °F -10.4 °F -4.0 °F 85% 29.36 in 10.0 mi NNE 4.6 mph - N/A   Mostly Cloudy
10:53 AM -0.9 °F -8.9 °F -4.0 °F 87% 29.37 in 10.0 mi North 3.5 mph - N/A   Mostly Cloudy
11:53 AM 3.0 °F -10.5 °F -0.0 °F 87% 29.39 in 10.0 mi NE 8.1 mph - N/A   Overcast
12:06 PM 3.2 °F -6.2 °F 1.4 °F 92% 29.38 in 10.0 mi NNE 4.6 mph - N/A   Overcast
12:53 PM 5.0 °F -5.6 °F 3.0 °F 92% 29.40 in 10.0 mi NNE 5.8 mph - N/A   Overcast
1:17 PM 6.8 °F -2.0 °F 3.2 °F 85% 29.39 in 10.0 mi NNE 4.6 mph - N/A   Overcast
1:53 PM 7.0 °F -6.6 °F 3.0 °F 84% 29.40 in 10.0 mi NE 9.2 mph - N/A   Overcast
2:48 PM 6.8 °F -6.9 °F 1.4 °F 79% 29.38 in 10.0 mi NE 9.2 mph - N/A   Overcast
2:53 PM 7.0 °F -6.6 °F 1.9 °F 80% 29.39 in 10.0 mi NE 9.2 mph - N/A   Overcast
3:41 PM 6.8 °F -5.9 °F 1.4 °F 79% 29.38 in 10.0 mi NE 8.1 mph - N/A   Overcast
3:53 PM 6.1 °F -6.8 °F 1.9 °F 83% 29.40 in 10.0 mi NE 8.1 mph - N/A   Overcast
4:53 PM 6.1 °F -8.7 °F 1.0 °F 80% 29.40 in 10.0 mi NNE 10.4 mph - N/A   Overcast
5:53 PM 7.0 °F -9.1 °F 1.9 °F 80% 29.39 in 10.0 mi NNE 12.7 mph - 0.00 in   Overcast
6:53 PM 7.0 °F -11.6 °F 1.0 °F 77% 29.38 in 8.0 mi NE 17.3 mph - 0.00 in   Overcast
7:31 PM 6.8 °F -6.9 °F 1.4 °F 79% 29.37 in 10.0 mi NNE 9.2 mph - 0.00 in   Overcast
7:53 PM 7.0 °F -8.3 °F 1.9 °F 80% 29.38 in 7.0 mi NNE 11.5 mph - 0.00 in Snow Light Snow
8:53 PM 7.0 °F -8.3 °F 1.9 °F 80% 29.39 in 4.0 mi NE 11.5 mph - 0.00 in Snow Light Snow
9:44 PM 6.8 °F -7.8 °F 1.4 °F 79% 29.37 in 10.0 mi NE 10.4 mph - 0.00 in   Overcast
9:53 PM 7.0 °F -7.5 °F 1.9 °F 80% 29.38 in 10.0 mi NE 10.4 mph - 0.00 in   Overcast
10:53 PM 7.0 °F -5.7 °F 3.0 °F 84% 29.38 in 3.0 mi NE 8.1 mph - 0.00 in Snow Light Snow
11:06 PM 6.8 °F -6.9 °F 3.2 °F 85% 29.36 in 2.5 mi NE 9.2 mph - 0.00 in Snow Light Snow
11:44 PM 6.8 °F -8.6 °F 1.4 °F 79% 29.35 in 3.0 mi NE 11.5 mph - 0.00 in Snow Light Snow
11:53 PM 6.1 °F -9.5 °F 1.9 °F 83% 29.37 in 4.0 mi NE 11.5 mph - 0.00 in Snow Light Snow